Flag for Germany Weather past 2 weeks in Seevetal, Lower Saxony, Germany

37 °F

Light rain. Passing clouds.

Feels Like: 37 °F
Forecast: 39 / 45 °F
Wind: 2 mph from North

Location: Hamburg-Finkenwerder

Current Time: Nov 30, 2015 at 8:24:49 PM

Latest Report: Nov 30, 2015 at 7:50 PM

Visibility: N/A

Pressure: 29.65 "Hg

Humidity: 100%

Dew point: 37 °F

Location of SeevetalLocation

Historic Weather in Seevetal — Graph


Seevetal temperature yesterday

Past Weeks' High & Low Weather Summary

High55 °F (Nov 16, 6:20 AM)100% (Nov 16, 6:20 AM)30.18 "Hg (Nov 16, 6:20 AM)
Low32 °F (Nov 23, 8:20 AM)66% (Nov 24, 12:50 PM)29.33 "Hg (Nov 21, 8:50 AM)
Average44 °F92%29.75 "Hg
* Reported Nov 16 6:20 AM — Nov 30 6:50 PM, Seevetal, Weather by CustomWeather, © 2015

Note: Actual official high and low records may vary slightly from our data, if they occured in-between our weather recording intervals... More about our weather records


Seevetal weather history for previous 24 hours

Time TempWeatherWind HumidityBarometerVisibility
6:50 PM
Mon, Nov 30
37 °FLight rain. Partly cloudy.3 mph100%29.71 "HgN/A
6:20 PM37 °FLight rain. Passing clouds.7 mph100%29.71 "HgN/A
5:50 PM37 °FLight rain. Passing clouds.10 mph100%29.74 "HgN/A
5:20 PM39 °FLight rain. Partly cloudy.12 mph100%29.74 "HgN/A
4:50 PM39 °FPartly cloudy.16 mph93%29.77 "HgN/A
4:20 PM41 °FPassing clouds.16 mph81%29.77 "HgN/A
3:50 PM41 °FPartly sunny.22 mph81%29.80 "HgN/A
3:20 PM43 °FPartly sunny.25 mph71%29.80 "HgN/A
2:50 PM45 °FPartly sunny.24 mph66%29.80 "HgN/A
2:20 PM45 °FSunny.23 mph71%29.80 "Hg10 mi
1:50 PM45 °FPartly sunny.23 mph71%29.83 "HgN/A
1:20 PM45 °FSunny.22 mph71%29.83 "Hg10 mi
12:50 PM45 °FSunny.22 mph71%29.83 "Hg10 mi
12:20 PM45 °FSunny.24 mph71%29.83 "Hg10 mi
11:50 AM45 °FSunny.22 mph76%29.86 "Hg10 mi
11:20 AM45 °FPassing clouds.22 mph76%29.86 "HgN/A
10:50 AM45 °FSunny.22 mph76%29.86 "Hg10 mi
10:20 AM43 °FSunny.21 mph81%29.86 "Hg10 mi
9:50 AM43 °FPassing clouds.20 mph81%29.86 "HgN/A
9:20 AM43 °FScattered clouds.20 mph76%29.83 "HgN/A
8:50 AM43 °FPassing clouds.18 mph76%29.80 "HgN/A
7:50 AM41 °FPassing clouds.15 mph87%29.80 "HgN/A
7:20 AM43 °FPassing clouds.20 mph81%29.77 "HgN/A
6:50 AM41 °FPassing clouds.17 mph93%29.74 "HgN/A
6:20 AM41 °FPassing clouds.24 mph93%29.74 "HgN/A
5:50 AM41 °FHail. Partly cloudy.25 mph93%29.71 "HgN/A
Weather by CustomWeather, © 2015

See weather overviewHow to use our weather pages